OK1KZE-6 Weather Reports


Display with metric or nautical units.
time (UTC)temp
F
wind
direction
speed
MPH
gust
MPH
rain 1hr
in
rain 24hr
in
rain mn
in
humidity
%
barometer
mb
20260505153007 72 103 23.0 25.0 0.00 0.00 0.00 47 1007.9
20260505152507 71 100 17.0 19.0 0.00 0.00 0.00 48 1008.0
20260505152007 70 126 23.0 24.0 0.00 0.00 0.00 48 1007.9
20260505151508 71 116 23.0 24.0 0.00 0.00 0.00 46 1008.0
20260505151007 72 107 15.0 23.0 0.00 0.00 0.00 44 1008.3
20260505150508 74 100 15.0 17.0 0.00 0.00 0.00 44 1008.3
20260505140508 72 69 12.0 13.0 0.00 0.00 0.00 45 1008.8
20260505125007 72 92 20.0 22.0 0.00 0.00 0.00 47 1009.6
20260505124508 72 88 19.0 21.0 0.00 0.00 0.00 47 1009.4
20260505124008 71 95 18.0 20.0 0.00 0.00 0.00 48 1009.4
20260505123508 72 96 16.0 20.0 0.00 0.00 0.00 47 1009.3
20260505123008 72 83 17.0 18.0 0.00 0.00 0.00 48 1009.5
20260505122508 72 74 16.0 17.0 0.00 0.00 0.00 49 1009.3
20260505122007 72 94 21.0 21.0 0.00 0.00 0.00 50 1009.4
20260505121507 71 89 22.0 23.0 0.00 0.00 0.00 49 1009.6
20260505121009 0 0 0.0 0.0 0.00 0.00 0.00 100 1009.6
20260505120508 0 0 0.0 0.0 0.00 0.00 0.00 100 1009.7
20260505120007 30 0 0.0 0.0 0.00 0.00 0.00 100 1009.8
20260505115507 30 0 0.0 0.0 0.00 0.00 0.00 100 1009.7
20260505115007 30 0 0.0 0.0 0.00 0.00 0.00 100 1009.8
20260505114507 30 0 0.0 0.0 0.00 0.00 0.00 100 1009.7
20260505113509 30 0 0.0 0.0 0.00 0.00 0.00 100 1010.0
20260505113008 30 0 0.0 0.0 0.00 0.00 0.00 100 1009.9
20260505112509 30 0 0.0 0.0 0.00 0.00 0.00 100 1010.1
20260505112008 30 0 0.0 0.0 0.00 0.00 0.00 100 1010.1
20260505111507 30 0 0.0 0.0 0.00 0.00 0.00 100 1010.1
20260505111008 69 58 16.0 16.0 0.00 0.00 0.00 51 1010.2
20260505110507 69 58 16.0 16.0 0.00 0.00 0.00 51 1010.3
20260505101508 68 89 14.0 15.0 0.00 0.00 0.00 54 1010.5
20260505101007 68 86 13.0 14.0 0.00 0.00 0.00 53 1010.4
20260505100507 68 97 19.0 19.0 0.00 0.00 0.00 54 1010.3
20260505100008 68 92 18.0 20.0 0.00 0.00 0.00 56 1010.3
20260505095008 68 85 17.0 19.0 0.00 0.00 0.00 56 1010.5
20260505094507 68 88 14.0 14.0 0.00 0.00 0.00 58 1010.5
20260505094007 66 78 12.0 14.0 0.00 0.00 0.00 58 1010.5
20260505093508 67 71 17.0 18.0 0.00 0.00 0.00 57 1010.6
20260505092508 66 77 18.0 19.0 0.00 0.00 0.00 60 1010.7
20260505092007 66 76 16.0 17.0 0.00 0.00 0.00 60 1010.6
20260505091508 67 83 18.0 20.0 0.00 0.00 0.00 61 1010.7
20260505091007 67 80 14.0 15.0 0.00 0.00 0.00 63 1011.0
20260505090507 67 75 16.0 17.0 0.00 0.00 0.00 62 1010.8
20260505090008 67 85 14.0 17.0 0.00 0.00 0.00 64 1011.0
20260505085507 66 67 15.0 17.0 0.00 0.00 0.00 63 1010.8
20260505085007 66 69 16.0 19.0 0.00 0.00 0.00 65 1010.9
20260505084507 65 50 17.0 21.0 0.00 0.00 0.00 64 1010.6
20260505084007 64 69 16.0 20.0 0.00 0.00 0.00 66 1011.1
20260505083507 65 67 18.0 20.0 0.00 0.00 0.00 66 1011.0
20260505083008 64 71 13.0 14.0 0.00 0.00 0.00 68 1010.9
20260505082508 64 71 13.0 14.0 0.00 0.00 0.00 68 1011.0
20260505082007 30 0 0.0 0.0 0.00 0.00 0.00 100 1010.8
20260505081508 30 0 0.0 0.0 0.00 0.00 0.00 100 1010.9
20260505081007 30 0 0.0 0.0 0.00 0.00 0.00 100 1010.7
20260505080507 63 68 12.0 12.0 0.00 0.00 0.00 70 1011.1
20260505080007 63 68 12.0 12.0 0.00 0.00 0.00 70 1010.8
20260505075508 30 0 0.0 0.0 0.00 0.00 0.00 100 1010.7
20260505075008 30 0 0.0 0.0 0.00 0.00 0.00 100 1010.9
20260505074508 30 0 0.0 0.0 0.00 0.00 0.00 100 1010.7
20260505074008 62 53 15.0 17.0 0.00 0.00 0.00 71 1010.8
20260505073507 62 53 15.0 17.0 0.00 0.00 0.00 71 1010.9
20260505073007 62 54 14.0 15.0 0.00 0.00 0.00 72 1011.1
20260505072507 62 67 10.0 13.0 0.00 0.00 0.00 72 1011.1
20260505072007 62 64 11.0 13.0 0.00 0.00 0.00 73 1010.9
20260505071508 62 72 13.0 14.0 0.00 0.00 0.00 74 1010.9
20260505071007 62 71 13.0 14.0 0.00 0.00 0.00 74 1011.0
20260505070508 62 65 14.0 15.0 0.00 0.00 0.00 72 1011.0
20260505070007 61 78 13.0 13.0 0.00 0.00 0.00 76 1011.1
20260505065508 61 65 12.0 14.0 0.00 0.00 0.00 76 1011.4
20260505065008 60 66 14.0 16.0 0.00 0.00 0.00 76 1011.0
20260505064506 60 78 10.0 12.0 0.00 0.00 0.00 76 1011.3
20260505064008 30 0 0.0 0.0 0.00 0.00 0.00 100 1011.2
20260505063508 61 82 11.0 11.0 0.00 0.00 0.00 76 1011.1
20260505063008 61 82 11.0 11.0 0.00 0.00 0.00 76 1011.2
20260505062507 61 73 9.0 11.0 0.00 0.00 0.00 74 1011.3
20260505062007 60 76 9.0 9.0 0.00 0.00 0.00 78 1011.3
20260505061509 60 76 8.0 8.0 0.00 0.00 0.00 77 1011.1
20260505061007 59 91 6.0 6.0 0.00 0.00 0.00 79 1011.3
20260505060507 59 95 5.0 6.0 0.00 0.00 0.00 80 1011.2
20260505060008 58 89 4.0 5.0 0.00 0.00 0.00 82 1011.3
20260505055508 57 107 6.0 6.0 0.00 0.00 0.00 86 1011.2
20260505055008 57 140 2.0 3.0 0.00 0.00 0.00 86 1011.5
20260505054507 57 117 4.0 5.0 0.00 0.00 0.00 84 1011.2
20260505054008 56 126 6.0 7.0 0.00 0.00 0.00 87 1011.3
20260505053507 56 146 5.0 6.0 0.00 0.00 0.00 85 1011.3
20260505053008 57 132 5.0 6.0 0.00 0.00 0.00 84 1011.2
20260505052507 58 114 6.0 6.0 0.00 0.00 0.00 82 1011.2
20260505051508 59 80 5.0 6.0 0.00 0.00 0.00 80 1011.1
20260505051008 59 77 4.0 4.0 0.00 0.00 0.00 78 1011.1
20260505050507 58 114 4.0 4.0 0.00 0.00 0.00 80 1011.0
20260505041508 56 126 5.0 6.0 0.00 0.00 0.00 86 1011.1
20260505041008 57 101 4.0 5.0 0.00 0.00 0.00 82 1011.2
20260505040508 55 154 4.0 6.0 0.00 0.00 0.00 89 1011.0
20260505040009 55 172 5.0 6.0 0.00 0.00 0.00 87 1011.2
20260505035007 56 124 7.0 8.0 0.00 0.00 0.00 84 1011.2
20260505034506 56 133 7.0 9.0 0.00 0.00 0.00 84 1011.0
20260505034007 57 120 5.0 6.0 0.00 0.00 0.00 80 1011.0
20260505033508 57 111 6.0 8.0 0.00 0.00 0.00 81 1011.2
20260505032507 57 121 6.0 7.0 0.00 0.00 0.00 83 1011.2
20260505032007 57 105 6.0 6.0 0.00 0.00 0.00 84 1011.2
20260505031508 57 111 5.0 6.0 0.00 0.00 0.00 84 1011.4
20260505031008 57 108 4.0 4.0 0.00 0.00 0.00 80 1011.3
20260505030508 56 115 5.0 6.0 0.00 0.00 0.00 85 1011.5
20260505030008 57 118 5.0 5.0 0.00 0.00 0.00 84 1011.5
20260505025507 57 119 6.0 6.0 0.00 0.00 0.00 83 1011.5
20260505025007 57 117 6.0 8.0 0.00 0.00 0.00 81 1011.6
20260505024507 58 120 8.0 10.0 0.00 0.00 0.00 79 1011.5
20260505024008 58 113 9.0 10.0 0.00 0.00 0.00 79 1011.6
20260505023507 58 117 11.0 12.0 0.00 0.00 0.00 77 1011.5
20260505023008 59 98 11.0 12.0 0.00 0.00 0.00 72 1011.5
20260505022507 60 98 11.0 12.0 0.00 0.00 0.00 72 1011.6
20260505022007 60 100 12.0 13.0 0.00 0.00 0.00 71 1011.4
20260505021507 60 97 14.0 14.0 0.00 0.00 0.00 71 1011.5
20260505021007 60 89 12.0 13.0 0.00 0.00 0.00 71 1011.3
20260505020508 60 82 12.0 13.0 0.00 0.00 0.00 70 1011.4
20260505020007 60 80 12.0 12.0 0.00 0.00 0.00 71 1011.6
20260505015507 60 78 11.0 12.0 0.00 0.00 0.00 71 1011.4
20260505015008 60 83 11.0 11.0 0.00 0.00 0.00 72 1011.6
20260505014508 59 81 9.0 10.0 0.00 0.00 0.00 72 1011.7
20260505014007 59 86 8.0 9.0 0.00 0.00 0.00 73 1011.6
20260505013507 59 76 8.0 9.0 0.00 0.00 0.00 73 1011.7
20260505013007 60 71 10.0 12.0 0.00 0.00 0.00 73 1011.6
20260505012508 59 85 10.0 12.0 0.00 0.00 0.00 73 1011.6
20260505012006 60 75 8.0 9.0 0.00 0.00 0.00 73 1011.7
20260505011508 60 72 11.0 12.0 0.00 0.00 0.00 73 1012.0
20260505011008 60 75 12.0 13.0 0.00 0.00 0.00 72 1011.9
20260505010508 59 76 9.0 11.0 0.00 0.00 0.00 74 1012.0
20260505010007 60 70 8.0 10.0 0.00 0.00 0.00 72 1011.8
20260505005508 60 68 15.0 15.0 0.00 0.00 0.00 71 1011.9
20260505005009 60 62 14.0 15.0 0.00 0.00 0.00 72 1012.1
20260505004508 59 48 15.0 17.0 0.00 0.00 0.00 74 1012.1
20260505004006 60 75 15.0 17.0 0.00 0.00 0.00 73 1012.2
20260505003508 59 66 21.0 21.0 0.00 0.00 0.00 74 1012.1
20260505003007 59 59 16.0 19.0 0.00 0.00 0.00 75 1012.3
20260505002507 59 79 16.0 22.0 0.00 0.00 0.00 74 1012.1
20260505002007 59 75 17.0 19.0 0.00 0.00 0.00 75 1012.3
20260505001508 58 60 14.0 16.0 0.00 0.00 0.00 79 1012.3
20260505001009 59 77 15.0 16.0 0.00 0.00 0.00 75 1012.1
20260505000508 60 80 19.0 21.0 0.00 0.00 0.00 72 1012.5
20260505000008 60 88 22.0 23.0 0.00 0.00 0.00 71 1012.0
20260504235508 61 88 23.0 27.0 0.00 0.00 0.00 70 1012.1
20260504235007 60 86 23.0 26.0 0.00 0.00 0.00 72 1012.3
20260504234508 59 84 8.0 11.0 0.00 0.00 0.00 79 1012.4
20260504234007 58 64 10.0 12.0 0.00 0.00 0.00 81 1012.8
20260504233508 59 86 19.0 20.0 0.00 0.00 0.00 76 1012.7
20260504233008 61 93 26.0 31.0 0.00 0.00 0.00 70 1012.3
20260504232507 62 97 33.0 34.0 0.00 0.00 0.00 69 1012.2
20260504232007 61 103 30.0 31.0 0.00 0.00 0.00 67 1012.9
20260504231507 62 106 27.0 28.0 0.00 0.00 0.00 68 1013.1
20260504231007 61 111 27.0 30.0 0.00 0.00 0.00 69 1013.2
20260504230506 58 115 25.0 30.0 0.00 0.00 0.00 79 1013.3
20260504230007 59 114 15.0 23.0 0.00 0.00 0.00 74 1013.8
20260504225507 59 123 15.0 23.0 0.00 0.00 0.00 74 1013.9
20260504225007 60 114 19.0 20.0 0.00 0.00 0.00 71 1014.1
20260504224508 60 118 13.0 14.0 0.00 0.00 0.00 69 1014.1
20260504224006 61 134 16.0 17.0 0.00 0.00 0.00 65 1014.3
20260504223506 63 139 15.0 15.0 0.00 0.00 0.00 61 1014.5
20260504223007 63 158 8.0 9.0 0.00 0.00 0.00 60 1014.6
20260504222507 61 182 7.0 8.0 0.00 0.00 0.00 65 1014.8
20260504222007 61 232 8.0 9.0 0.00 0.00 0.00 64 1015.0
20260504221508 62 180 13.0 19.0 0.00 0.00 0.00 62 1015.1
20260504221007 61 199 7.0 11.0 0.00 0.00 0.00 64 1014.9
20260504220508 62 182 14.0 18.0 0.00 0.00 0.00 60 1014.9
20260504220008 61 191 10.0 17.0 0.00 0.00 0.00 62 1014.4
20260504215507 65 116 10.0 11.0 0.00 0.00 0.00 53 1014.1
20260504215008 66 98 20.0 21.0 0.00 0.00 0.00 50 1014.0
20260504214507 66 96 20.0 21.0 0.00 0.00 0.00 51 1013.7
20260504214007 66 91 20.0 21.0 0.00 0.00 0.00 49 1013.9
20260504213508 66 88 19.0 20.0 0.00 0.00 0.00 50 1014.0
20260504213008 66 89 20.0 20.0 0.00 0.00 0.00 50 1013.6
20260504212508 66 84 19.0 21.0 0.00 0.00 0.00 49 1013.9
20260504212007 66 76 16.0 21.0 0.00 0.00 0.00 49 1013.8
20260504211508 66 78 18.0 19.0 0.00 0.00 0.00 49 1013.9
20260504211007 66 76 17.0 18.0 0.00 0.00 0.00 49 1013.9
20260504210508 66 74 15.0 15.0 0.00 0.00 0.00 49 1013.8
20260504210008 66 66 12.0 15.0 0.00 0.00 0.00 50 1014.0
20260504205508 66 80 15.0 17.0 0.00 0.00 0.00 49 1014.0
20260504204508 66 86 15.0 17.0 0.00 0.00 0.00 49 1014.0
20260504204007 66 95 17.0 19.0 0.00 0.00 0.00 48 1013.9
20260504203508 66 95 17.0 18.0 0.00 0.00 0.00 50 1013.9
20260504203008 66 95 18.0 18.0 0.00 0.00 0.00 48 1014.1
20260504202508 66 92 18.0 19.0 0.00 0.00 0.00 48 1014.1
20260504202007 67 94 18.0 19.0 0.00 0.00 0.00 48 1014.0
20260504201508 67 94 19.0 21.0 0.00 0.00 0.00 48 1014.0
20260504201007 67 96 19.0 20.0 0.00 0.00 0.00 48 1014.0
20260504200508 67 96 19.0 19.0 0.00 0.00 0.00 49 1014.2
20260504200008 67 97 18.0 19.0 0.00 0.00 0.00 49 1014.1
20260504195508 67 98 19.0 20.0 0.00 0.00 0.00 48 1014.1
20260504195009 67 97 20.0 21.0 0.00 0.00 0.00 49 1014.2
20260504194508 67 100 19.0 20.0 0.00 0.00 0.00 49 1014.2
20260504194007 67 99 20.0 20.0 0.00 0.00 0.00 49 1014.2
20260504193508 67 99 21.0 21.0 0.00 0.00 0.00 50 1014.1
20260504193007 67 98 20.0 21.0 0.00 0.00 0.00 49 1014.1
20260504192507 67 99 21.0 21.0 0.00 0.00 0.00 49 1014.2
20260504192007 67 95 20.0 21.0 0.00 0.00 0.00 49 1014.2
20260504191508 67 95 20.0 21.0 0.00 0.00 0.00 49 1014.1
20260504191007 67 98 21.0 22.0 0.00 0.00 0.00 49 1014.1
20260504190507 67 97 21.0 21.0 0.00 0.00 0.00 49 1014.0
20260504190008 68 95 22.0 23.0 0.00 0.00 0.00 48 1014.0
20260504185507 68 92 21.0 21.0 0.00 0.00 0.00 47 1014.1
20260504185008 68 92 22.0 22.0 0.00 0.00 0.00 47 1014.1
20260504184507 68 94 21.0 22.0 0.00 0.00 0.00 47 1013.9
20260504184007 68 91 20.0 21.0 0.00 0.00 0.00 47 1013.9
20260504183508 68 89 20.0 21.0 0.00 0.00 0.00 47 1013.8
20260504183007 68 89 20.0 22.0 0.00 0.00 0.00 46 1013.9
20260504182507 69 87 20.0 22.0 0.00 0.00 0.00 46 1013.9
20260504182007 68 91 21.0 22.0 0.00 0.00 0.00 46 1013.8
20260504181009 68 87 19.0 19.0 0.00 0.00 0.00 48 1014.1
20260504180506 68 88 17.0 19.0 0.00 0.00 0.00 48 1013.9
20260504180008 68 89 21.0 21.0 0.00 0.00 0.00 47 1013.9
20260504175507 69 93 19.0 21.0 0.00 0.00 0.00 47 1014.0
20260504175008 69 87 19.0 20.0 0.00 0.00 0.00 46 1014.1
20260504174507 69 83 19.0 19.0 0.00 0.00 0.00 46 1014.1
20260504174008 69 84 17.0 18.0 0.00 0.00 0.00 46 1014.0
20260504173509 69 88 18.0 19.0 0.00 0.00 0.00 45 1014.2
20260504173008 69 87 18.0 19.0 0.00 0.00 0.00 45 1014.2
20260504172508 69 87 19.0 21.0 0.00 0.00 0.00 45 1014.0
20260504172008 69 87 20.0 21.0 0.00 0.00 0.00 45 1014.2
20260504171508 69 91 16.0 20.0 0.00 0.00 0.00 46 1014.3
20260504171007 69 83 21.0 22.0 0.00 0.00 0.00 45 1014.2
20260504170508 70 82 20.0 21.0 0.00 0.00 0.00 46 1014.3